Regional Weather Roundup
Issued by NWS

Home | Current Version | Previous Version | Graphics & Text | Print | Product List | Glossary On
Versions: 1 2 3 4 5 6 7 8 9 10 11 12 13 14 15 16 17 18 19 20 21 22 23 24 25 26 27 28 29 30 31 32 33 34 35 36 37 38 39 40 41 42 43 44 45 46 47 48 49 50
000
ASUS43 KLOT 230603
RWRIL

ILLINOIS REGIONAL WEATHER ROUNDUP
NATIONAL WEATHER SERVICE CHICAGO/ROMEOVILLE IL
100 AM CDT MON APR 23 2018

NOTE: "FAIR" INDICATES FEW OR NO CLOUDS BELOW 12,000 FEET WITH NO
SIGNIFICANT WEATHER AND/OR OBSTRUCTIONS TO VISIBILITY.

* THESE STATIONS ARE NOT UNDER NWS QUALITY CONTROL. THEY ALSO MAY NOT
  REPORT WEATHER SUCH AS PRECIPITATION OR FOG.

ILZ001-002-007-009-015-016-024-230700-
NORTHWEST ILLINOIS

CITY           SKY/WX    TMP DP  RH WIND       PRES   REMARKS
MOLINE         FAIR      48  28  46 E9        30.19S
6HR MIN TEMP:  48; 6HR MAX TEMP:  64;

STERLING*      FAIR      45  29  53 E13       30.22S
SAVANNA*       FAIR      47  30  50 E8        30.21F
$$

ILZ003-004-008-010-011-017-018-230700-
NORTH CENTRAL ILLINOIS

CITY           SKY/WX    TMP DP  RH WIND       PRES   REMARKS
ROCKFORD       MOCLDY    45  26  47 E6        30.25S
6HR MIN TEMP:  45; 6HR MAX TEMP:  58;

FREEPORT*      FAIR      41  29  64 E6        30.25S
ROCHELLE*      FAIR      44  29  55 NE10      30.23F
DE KALB*       FAIR      43  28  56 NE7       30.24S
PERU*          FAIR      46  31  55 E9        30.21S
$$

ILZ005-006-012>014-019>023-230700-
NORTHEAST ILLINOIS

CITY           SKY/WX    TMP DP  RH WIND       PRES   REMARKS
CHICAGO-OHARE  MOCLDY    44  29  55 NE7       30.23S
6HR MIN TEMP:  43; 6HR MAX TEMP:  55;

CHICAGO-MIDWAY MOCLDY    46  32  58 E6        30.23F
6HR MIN TEMP:  46; 6HR MAX TEMP:  55;

AURORA         FAIR      45  28  51 NE8       30.22F
6HR MIN TEMP:  45; 6HR MAX TEMP:  58;

LANSING*       FAIR      40  36  84 NE3       30.23F
JOLIET*        FAIR      46  31  58 NE3       30.22S
WAUKEGAN       FAIR      41  30  65 NE6       30.24S
6HR MIN TEMP:  41; 6HR MAX TEMP:  51;

DUPAGE AIRPORT FAIR      43  29  57 NE7       30.22F
6HR MIN TEMP:  42; 6HR MAX TEMP:  56;

KANKAKEE*      FAIR      42  30  63 E8        30.20F
WHEELING       FAIR      45  30  55 NE3       30.26S
6HR MIN TEMP:  45; 6HR MAX TEMP:  55;

MORRIS*        FAIR      43  31  63 NE3       30.21S
ROMEOVILLE*    FAIR      43  31  62 E8        30.22F
NORTHERLY ISL    N/A     41  34  76 NE5         N/A
$$

LMZ740>746-230700-
SOUTHERN LAKE MICHIGAN

STATION/POSITION SKY/WX   TEMP    WIND        PRES    VSBY  WAVE
                          AIR SEA DIR/SP/G                  HT/PER
                          (F)     (DEG/KT/KT) (MB)    (MI)  (FT/S)
HARRISON CRIB              44      80/ 11/ 12   N/A
BURNHAM HARBOR             41      10/  4/  9   N/A
CALUMET HARBOR             42      50/  4/  5 1023.5R
BURNS HARBOR               50     100/  7/ 10 1024.0F
MICHIGAN CITY              50      70/  8/  9   N/A
$$

ILZ025>027-034>036-040-047-049-050-058-095>099-230700-
WEST-CENTRAL ILLINOIS

CITY           SKY/WX    TMP DP  RH WIND       PRES   REMARKS
QUINCY         MOCLDY    54  32  43 NE13      30.10S
GALESBURG*     FAIR      52  32  46 NE12      30.18S
MACOMB*        CLOUDY    46  32  59 NE9       30.17S
JACKSONVILLE*  CLOUDY    54  33  45 NE10      30.10S
PITTSFIELD*    CLOUDY    56  34  42 NE9       30.11R
$$

ILZ028>032-037-038-041>044-048-051>054-059>061-230700-
CENTRAL ILLINOIS

CITY           SKY/WX    TMP DP  RH WIND       PRES   REMARKS
PONTIAC        FAIR      42  33  70 NE10      30.19F
BLOOMINGTON    FAIR      47  32  56 NE14      30.16F
DECATUR        FAIR      53  33  46 NE15      30.09F
PEORIA         FAIR      53  29  39 E17G24    30.16F
6HR MIN TEMP:  51; 6HR MAX TEMP:  64;

LACON*         FAIR      47  29  49 E10       30.18S
LINCOLN*       MOCLDY    55  34  45 NE15      30.13R
SPRINGFIELD    CLOUDY    57  33  40 NE17      30.10S
6HR MIN TEMP:  57; 6HR MAX TEMP:  66;

TAYLORVILLE    CLOUDY    57  32  39 E16       30.08S
6HR MIN TEMP:  57; 6HR MAX TEMP:  65;

$$

ILZ033-039-045-046-055>057-062-063-230700-
EAST-CENTRAL ILLINOIS

CITY           SKY/WX    TMP DP  RH WIND       PRES   REMARKS
CHAMPAIGN      FAIR      52  31  44 NE18      30.12F
DANVILLE*      FAIR      50  30  46 NE10      30.13S
RANTOUL*       FAIR      51  33  49 NE14      30.15S
MATTOON        LGT RAIN  55  36  48 NE18      30.07F
PARIS*         CLOUDY    54  34  47 NE13G23   30.11F
$$

ILZ079-100>102-230700-
SOUTHWEST ILLINOIS

CITY           SKY/WX    TMP DP  RH WIND       PRES   REMARKS
ALTON          CLOUDY    56  42  57 N3        30.04S
BELLEVILLE     DRIZZLE   55  48  76 NE7       30.00F
CAHOKIA*       LGT RAIN  55  47  74 NE6       30.02F
SPARTA*        DRIZZLE   55  54  97 NE12      30.00F
$$

ILZ064>066-069>071-074>076-080>082-084>086-088>090-092>094-230700-
SOUTH-CENTRAL ILLINOIS

CITY           SKY/WX    TMP DP  RH WIND       PRES   REMARKS
CARBONDALE     LGT RAIN  55  50  83 NE15G26   29.95F
6HR MIN TEMP:  55; 6HR MAX TEMP:  58; 6HR PCP:  0.22;

CAIRO*         RAIN      57  56  98 NE16      29.85F
EFFINGHAM*     CLOUDY    58  37  45 NE6       30.06F
MARION         LGT RAIN  54  52  94 NE14      29.96F
MT. VERNON     LGT RAIN  54  46  74 NE12      30.01F
CENTRALIA*     LGT RAIN  57  43  58 E12       30.01F
SALEM*         CLOUDY    60  35  39 E7        30.02F
METROPOLIS*    RAIN      58  56  94 NE10G22   29.88F
$$

ILZ067-068-072-073-078-083-087-091-230700-
SOUTHEAST ILLINOIS

CITY           SKY/WX    TMP DP  RH WIND       PRES   REMARKS
LAWRENCEVILLE  CLOUDY    59  33  37 NE10      30.03F
FLORA*         RAIN      58  42  56 NE7       30.04F
FAIRFIELD*     LGT RAIN  55  43  63 NE7       30.01F
HARRISBURG*    LGT RAIN  55  50  86 NE14G23   29.96F
ROBINSON*      CLOUDY    58  33  37 NE10      30.06F
CARMI*         LGT RAIN  53  48  83 NE9       29.99F
$$

ABBREVIATIONS USED IN REMARKS
   TC - TEMPERATURE IN CELSIUS
  WCI - WIND CHILL INDEX
   HX - HEAT INDEX
  VSB - VISIBILITY
$$





USA.gov is the U.S. government's official web portal to all federal, state and local government web resources and services.